OBJECT F, 44884

Orbit data source: Space-Track

You're viewing an Uncataloged Satellite

Recently launched and/or uncataloged satellites may have evolving metadata. Metadata may include but not limited to: Owner, Maufacturer, Bus, Motor, and Mission.

OBJECT F, 44884 is a satellite in SSO that was launched on Fri, 20 Dec 2019 UTC via a CHANG ZHENG 4B launch vehicle from the Taiyaun Space Center, China (TSC). Unknown objects in Earth's orbit typically refer to objects detected orbiting the Earth but have not yet been identified or cataloged. These objects could be anything from previously untracked satellites, spent rocket stages, debris from satellite collisions, or even natural meteoroids temporarily captured by Earth's gravity.

Loading next visibility...
Identifier
44884, 2019-093F
Orbit
SSO
Country
Flag of TBDTBD
Related business
None
Manufacturer
Shanghai ASES
Mission
Operational Commercial Communications
Bus & Motor
STARLIGHTB, Unknown motor
Mass
40 kg wet, ~40 kg dry
Launch date (UTC)
2019-12-20 (6 years ago)
Launch vehicle
CHANG ZHENG 4B
Launch site
Taiyaun Space Center, China (TSC)
Object type
Unknown
Shape & HBR
Box, Unknown HBR
Radar Cross Section
0.195 m², Medium (>0.1 m² and < 1m²)

Expand to show TLE details & history
Last TLE update: 15 hours ago

TLE from 15 hours ago
0 OBJECT F
1 44884U 19093F   25261.26131935  .00005458  00000-0  47754-3 0  9998
2 44884  97.8068 346.0804 0008972 224.3241 135.7263 14.97115250311688
Epoch: 2025-09-18T06:16Z
TLE epoch observation values (Epoch: 2025-09-18T06:16:17.991Z)
Latitude
-0.00004°
Longitude
-105.42001°
Altitude
583.333 km
Speed
7.566 km/s
True Right ascension
23h 04m 19s
True Declination
0° 00' 00"
Sunlit
Object was in full shadow at epoch
Visualization orbit readout
Latitude
Unknown
Longitude
Unknown
Altitude
Unknown
Speed
Unknown
Apparent Right ascension
Unknown
Apparent Declination
Unknown
Sunlit
N/A
Visualization observer readout
Local Sidereal Time
13:43:34
Azimuth
Unknown
Elevation
Unknown
Doppler factor
Unknown
Orbital elements
Apogee altitude
579.065 km
Perigee altitude
566.592 km
Semi-major axis
6,950.966 km
Eccentricity
0.0009
Inclination
97.8068°
RAAN
346.0804°
Arg. of periapsis
224.3241°
True anomaly
135.79801°
Mean anomaly
135.7263°
Eccentric anomaly
135.76216°
Mean motion
3.7452 °/min
Orbital period
96.12 mins
BSTAR
0.00047754
Loading maneuver chart data...
Computing Atmospheric mass density...
Loading historical data...
Loading historical data...
Loading historical data...
Loading historical data...
Loading historical data...
Loading historical data...
Loading historical data...

Documentation

Showing up to 5 results
|